Terminal Aerodrome Forecast
Issued by NWS

Home | Current Version | Previous Version | Graphics & Text | Print | Product List | Glossary On
Versions: 1 2 3 4 5 6 7 8 9 10 11 12 13 14 15
715
FTUS43 KMPX 031139
TAFAXN
TAF
KAXN 031139Z 0312/0412 34014G22KT P6SM SCT070 BKN120
     FM032100 31010KT P6SM BKN250
     FM040300 25005KT P6SM OVC050
     FM040600 24005KT 6SM BR OVC030 PROB30 0408/0412 2SM -SN BR
      OVC015=

USA.gov is the U.S. government's official web portal to all federal, state and local government web resources and services.